Tracking 23583 objects as of 28-Jul-2021
HD Live streaming from Space Station
objects crossing your sky now

NUDT-PHONESAT

Track NUDT-PHONESAT now!
10-day predictions
NUDT-PHONESAT is classified as:


NORAD ID: 40900
Int'l Code: 2015-049B
Perigee: 484.4 km
Apogee: 500.7 km
Inclination: 97.4 °
Period: 94.3 minutes
Semi major axis: 6863 km
RCS: Unknown
Launch date: September 19, 2015
Source: People's Republic of China (PRC)
Launch site: Taiyaun Space Center, China (TSC)

Uplink (MHz):
Downlink (MHz): 437.300
Beacon (MHz):
Mode: 9k6 GFSK
Call sign: BJ1SJ
Status: Inactive

aabbcc
Your satellite tracking list
Your tracking list is empty




NASA's NSSDC Master Catalog

Two Line Element Set (TLE):
1 40900U 15049B   21209.48979365  .00004854  00000-0  18689-3 0  9993
2 40900  97.4186 223.3376 0011874   4.6099 152.2517 15.26777781325087
Source of the keplerian elements: Caltech